TimeEST,TemperatureF,Dew PointF,Humidity,Sea Level PressureIn,VisibilityMPH,Wind Direction,Wind SpeedMPH,Gust SpeedMPH,PrecipitationIn,Events,Conditions,WindDirDegrees,DateUTC
12:52 AM,28.0,17.1,63,30.48,10.0,Calm,Calm,-,N/A,,Overcast,0,2013-12-09 05:52:00
1:52 AM,27.0,17.1,66,30.48,8.0,ESE,8.1,-,0.00,,Overcast,110,2013-12-09 06:52:00
2:24 AM,26.1,19.9,78,30.45,2.0,Calm,Calm,-,0.00,Snow,Light Snow,0,2013-12-09 07:24:00
2:42 AM,25.0,21.0,85,30.44,1.5,ENE,3.5,-,0.01,Snow,Light Snow,60,2013-12-09 07:42:00
2:52 AM,25.0,21.0,85,30.46,1.5,NE,3.5,-,0.01,Snow,Light Snow,40,2013-12-09 07:52:00
3:36 AM,25.0,21.0,85,30.41,2.0,NNE,3.5,-,0.01,Snow,Light Snow,30,2013-12-09 08:36:00
3:52 AM,25.0,19.9,81,30.43,2.5,North,6.9,-,0.01,Snow,Light Snow,10,2013-12-09 08:52:00
4:18 AM,25.0,21.0,85,30.40,2.5,Calm,Calm,-,0.00,Snow,Light Snow,0,2013-12-09 09:18:00
4:21 AM,25.0,21.0,85,30.39,3.0,Calm,Calm,-,0.00,Snow,Light Snow,0,2013-12-09 09:21:00
4:31 AM,25.0,21.0,85,30.38,2.0,Calm,Calm,-,0.00,Snow,Light Snow,0,2013-12-09 09:31:00
4:42 AM,25.0,21.0,85,30.38,1.8,NE,3.5,-,0.01,Snow,Light Snow,40,2013-12-09 09:42:00
4:48 AM,24.8,21.2,86,30.37,2.0,NE,3.5,-,0.01,Snow,Light Snow,40,2013-12-09 09:48:00
4:52 AM,25.0,21.0,85,30.39,2.0,ENE,3.5,-,0.01,Snow,Light Snow,60,2013-12-09 09:52:00
5:02 AM,25.0,19.9,81,30.37,4.0,NNE,5.8,-,0.00,,Haze,30,2013-12-09 10:02:00
5:24 AM,25.0,21.0,85,30.35,5.0,NNE,3.5,-,0.00,,Overcast,30,2013-12-09 10:24:00
5:52 AM,25.0,21.0,85,30.35,5.0,Calm,Calm,-,0.00,,Overcast,0,2013-12-09 10:52:00
6:19 AM,25.0,21.9,88,30.32,1.8,Calm,Calm,-,0.00,Snow,Light Snow,0,2013-12-09 11:19:00
6:43 AM,25.0,21.9,88,30.32,1.0,Calm,Calm,-,0.02,Snow,Light Snow,0,2013-12-09 11:43:00
6:52 AM,25.0,21.9,88,30.33,0.8,Calm,Calm,-,0.03,Snow,Light Snow,0,2013-12-09 11:52:00
7:10 AM,25.0,21.9,88,30.29,0.8,Calm,Calm,-,0.01,Snow,Light Snow,0,2013-12-09 12:10:00
7:13 AM,25.0,21.9,88,30.29,1.0,Calm,Calm,-,0.02,Snow,Light Snow,0,2013-12-09 12:13:00
7:32 AM,25.0,21.9,88,30.27,0.8,Calm,Calm,-,0.02,Snow,Light Snow,0,2013-12-09 12:32:00
7:50 AM,24.8,21.2,86,30.26,1.0,NNW,3.5,-,0.02,Snow,Light Snow,340,2013-12-09 12:50:00
7:52 AM,25.0,21.9,88,30.27,1.0,Variable,3.5,-,0.02,Snow,Light Snow,0,2013-12-09 12:52:00
7:56 AM,26.1,21.9,84,30.26,1.2,Calm,Calm,-,0.01,Snow,Light Snow,0,2013-12-09 12:56:00
8:52 AM,26.1,24.1,92,30.25,1.5,WNW,3.5,-,0.07,,Overcast,300,2013-12-09 13:52:00
9:12 AM,27.0,24.1,89,30.22,0.8,Calm,Calm,-,0.02,Snow,Light Snow,0,2013-12-09 14:12:00
9:40 AM,28.0,25.0,88,30.23,0.8,WNW,8.1,-,0.03,Snow,Light Snow,300,2013-12-09 14:40:00
9:45 AM,27.0,25.0,92,30.24,1.0,WNW,9.2,-,0.03,,Overcast,290,2013-12-09 14:45:00
9:52 AM,28.0,25.0,88,30.24,1.0,Calm,Calm,-,0.05,,Overcast,0,2013-12-09 14:52:00
9:55 AM,28.0,25.0,88,30.22,0.8,Calm,Calm,-,0.00,,Overcast,0,2013-12-09 14:55:00
10:10 AM,28.0,25.0,88,30.22,0.8,NW,3.5,-,0.02,Snow,Light Snow,320,2013-12-09 15:10:00
10:19 AM,28.0,26.1,92,30.22,0.8,WNW,3.5,-,0.02,Snow,Light Snow,300,2013-12-09 15:19:00
10:42 AM,28.9,27.0,92,30.17,1.0,Calm,Calm,-,0.03,,Overcast,0,2013-12-09 15:42:00
10:49 AM,28.4,26.6,93,30.17,1.2,West,3.5,-,0.04,,Overcast,270,2013-12-09 15:49:00
10:52 AM,28.9,27.0,92,30.19,1.2,Calm,Calm,-,0.04,,Overcast,0,2013-12-09 15:52:00
11:02 AM,30.0,27.0,88,30.16,2.0,Calm,Calm,-,0.00,,Overcast,0,2013-12-09 16:02:00
11:22 AM,30.0,28.0,92,30.14,2.0,Calm,Calm,-,0.00,Rain,Light Freezing Rain,0,2013-12-09 16:22:00
11:41 AM,30.9,28.9,92,30.12,1.8,Calm,Calm,-,0.02,Rain,Light Freezing Rain,0,2013-12-09 16:41:00
11:52 AM,32.0,28.9,88,30.12,2.5,Calm,Calm,-,0.02,Rain,Light Freezing Rain,0,2013-12-09 16:52:00
12:02 PM,32.0,30.0,92,30.09,2.0,Calm,Calm,-,0.00,,Overcast,0,2013-12-09 17:02:00
12:06 PM,32.0,30.0,92,30.09,1.8,Variable,3.5,-,0.00,Rain,Light Freezing Rain,0,2013-12-09 17:06:00
12:44 PM,33.1,30.0,89,30.06,1.5,Calm,Calm,-,0.01,,Overcast,0,2013-12-09 17:44:00
12:52 PM,33.1,30.0,89,30.06,1.5,Calm,Calm,-,0.01,,Overcast,0,2013-12-09 17:52:00
1:02 PM,33.1,30.9,92,30.04,0.8,Calm,Calm,-,0.00,,Overcast,0,2013-12-09 18:02:00
1:09 PM,33.1,30.9,92,30.04,1.2,Calm,Calm,-,0.01,,Overcast,0,2013-12-09 18:09:00
1:52 PM,34.0,30.9,89,30.03,1.8,NNW,3.5,-,0.01,Rain,Light Rain,330,2013-12-09 18:52:00
2:01 PM,34.0,30.9,89,30.00,2.0,WNW,3.5,-,0.00,,Overcast,300,2013-12-09 19:01:00
2:52 PM,34.0,32.0,92,30.00,2.5,NW,4.6,-,0.01,,Overcast,320,2013-12-09 19:52:00
3:37 PM,34.0,32.0,92,29.96,2.5,WNW,3.5,-,0.00,,Overcast,300,2013-12-09 20:37:00
3:52 PM,34.0,32.0,92,29.97,2.5,WNW,4.6,-,0.00,,Overcast,300,2013-12-09 20:52:00
4:14 PM,34.0,32.0,92,29.94,3.0,NW,3.5,-,N/A,,Overcast,310,2013-12-09 21:14:00
4:52 PM,34.0,32.0,92,29.94,3.0,NW,4.6,-,N/A,,Overcast,310,2013-12-09 21:52:00
5:03 PM,34.0,33.1,96,29.92,2.5,NNW,3.5,-,N/A,,Overcast,330,2013-12-09 22:03:00
5:21 PM,34.0,33.1,96,29.91,3.0,NNW,3.5,-,N/A,,Overcast,340,2013-12-09 22:21:00
5:50 PM,33.8,33.8,100,29.91,3.0,Calm,Calm,-,0.00,Rain,Light Rain,0,2013-12-09 22:50:00
5:52 PM,34.0,33.1,96,29.92,3.0,Calm,Calm,-,0.00,Rain,Light Rain,0,2013-12-09 22:52:00
6:05 PM,34.0,32.0,92,29.91,2.5,Calm,Calm,-,0.00,,Overcast,0,2013-12-09 23:05:00
6:27 PM,34.0,32.0,92,29.90,2.0,NW,3.5,-,0.00,,Overcast,320,2013-12-09 23:27:00
6:50 PM,33.8,33.8,100,29.90,3.0,NNW,3.5,-,0.00,,Overcast,340,2013-12-09 23:50:00
6:52 PM,34.0,33.1,96,29.92,2.5,Calm,Calm,-,0.00,,Overcast,0,2013-12-09 23:52:00
7:09 PM,35.1,33.1,92,29.90,1.8,Calm,Calm,-,0.00,,Overcast,0,2013-12-10 00:09:00
7:15 PM,35.1,33.1,92,29.90,2.0,Calm,Calm,-,0.00,,Overcast,0,2013-12-10 00:15:00
7:25 PM,35.1,33.1,92,29.89,4.0,Calm,Calm,-,0.00,,Overcast,0,2013-12-10 00:25:00
7:34 PM,35.1,33.1,92,29.89,6.0,Calm,Calm,-,0.00,,Overcast,0,2013-12-10 00:34:00
7:52 PM,34.0,33.1,96,29.92,4.0,Calm,Calm,-,0.00,,Overcast,0,2013-12-10 00:52:00
8:32 PM,34.0,33.1,96,29.90,5.0,Calm,Calm,-,N/A,,Overcast,0,2013-12-10 01:32:00
8:52 PM,35.1,33.1,92,29.91,6.0,Calm,Calm,-,N/A,,Overcast,0,2013-12-10 01:52:00
9:36 PM,36.0,33.1,89,29.89,8.0,Calm,Calm,-,N/A,,Overcast,0,2013-12-10 02:36:00
9:52 PM,34.0,32.0,92,29.91,9.0,Calm,Calm,-,N/A,,Mostly Cloudy,0,2013-12-10 02:52:00
10:11 PM,34.0,32.0,92,29.90,5.0,SE,3.5,-,N/A,,Scattered Clouds,130,2013-12-10 03:11:00
10:52 PM,32.0,30.0,92,29.91,6.0,Calm,Calm,-,N/A,,Clear,0,2013-12-10 03:52:00
11:52 PM,35.1,30.9,85,29.90,10.0,Variable,4.6,-,N/A,,Clear,0,2013-12-10 04:52:00